Location: Monte Entu
(40.0333°N, 8.5333°E)
Time: 03:09:52
(UTC+00:00)

CZ-4B R/B - Pass Details

Date: 09 February 2023
Orbit: 809 x 881 km, 99.0° (Epoch: 23 March)

Event Time Altitude Azimuth Distance (km) Brightness Sun altitude
Rises 18:06:14 0° 154° (SSE) 3,339 6.1 -14.3°
Reaches altitude 10° 18:08:34 10° 151° (SSE) 2,419 5.4 -14.7°
Maximum altitude 18:13:50 62° 72° (ENE) 942 3.1 -15.7°
Drops below altitude 10° 18:19:14 10° 353° (N) 2,481 5.7 -16.7°
Sets 18:21:40 0° 350° (N) 3,432 6.4 -17.2°
